Lake Hartwell Weather Center

Moon Phase Calendar



Lake Hartwell Water Level
Online Cameras

 


      

Current Conditions in Centerville
8/16/2022 4:13:06 PM

79°F
Feels Like 79
Rain
Humidity
69%
Pressure
29.94"
Wind
8 mph (E)
Dew Point
68°F
UV Index
4/10 (Moderate)
Visibility
6 mi

Hourly Forecast

Date & Time Tue, Aug 16
4:00 PM
Tue, Aug 16
5:00 PM
Tue, Aug 16
6:00 PM
Tue, Aug 16
7:00 PM
Tue, Aug 16
8:00 PM
Tue, Aug 16
9:00 PM
Tue, Aug 16
10:00 PM
Tue, Aug 16
11:00 PM
Wed, Aug 17
12:00 AM
Wed, Aug 17
1:00 AM
Wed, Aug 17
2:00 AM
Wed, Aug 17
3:00 AM
Wed, Aug 17
4:00 AM
Wed, Aug 17
5:00 AM
Wed, Aug 17
6:00 AM
Wed, Aug 17
7:00 AM
Wed, Aug 17
8:00 AM
Wed, Aug 17
9:00 AM
Wed, Aug 17
10:00 AM
Wed, Aug 17
11:00 AM
Wed, Aug 17
12:00 PM
Wed, Aug 17
1:00 PM
Wed, Aug 17
2:00 PM
Wed, Aug 17
3:00 PM
Wed, Aug 17
4:00 PM
Wed, Aug 17
5:00 PM
Wed, Aug 17
6:00 PM
Wed, Aug 17
7:00 PM
Wed, Aug 17
8:00 PM
Wed, Aug 17
9:00 PM
Wed, Aug 17
10:00 PM
Wed, Aug 17
11:00 PM
Thu, Aug 18
12:00 AM
Thu, Aug 18
1:00 AM
Thu, Aug 18
2:00 AM
Thu, Aug 18
3:00 AM
Thu, Aug 18
4:00 AM
Thu, Aug 18
5:00 AM
Thu, Aug 18
6:00 AM
Thu, Aug 18
7:00 AM
Thu, Aug 18
8:00 AM
Thu, Aug 18
9:00 AM
Thu, Aug 18
10:00 AM
Thu, Aug 18
11:00 AM
Thu, Aug 18
12:00 PM
Thu, Aug 18
1:00 PM
Thu, Aug 18
2:00 PM
Thu, Aug 18
3:00 PM
Condition
Clouds

Clouds

Clouds

Rain

Rain

Rain

Clouds

Clouds

Clouds

Clouds

Clouds

Rain

Rain

Clouds

Rain

Clouds

Clouds

Clouds

Clouds

Clouds

Clouds

Clouds

Clouds

Clouds

Clouds

Clouds

Clouds

Clouds

Clouds

Clouds

Clouds

Clouds

Clouds

Clouds

Clouds

Rain

Rain

Rain

Clouds

Rain

Clouds

Clouds

Clouds

Clouds

Rain

Rain

Rain

Rain
Temperature 79°F80°F77°F74°F72°F70°F69°F69°F69°F69°F69°F68°F69°F68°F68°F67°F67°F70°F72°F74°F79°F83°F86°F86°F83°F82°F81°F82°F77°F75°F75°F73°F71°F70°F68°F66°F67°F66°F66°F66°F67°F70°F71°F72°F74°F77°F82°F80°F
Feels Like 79°F80°F78°F75°F73°F71°F70°F70°F70°F70°F70°F69°F70°F69°F68°F68°F68°F70°F72°F74°F79°F84°F86°F86°F83°F82°F82°F83°F77°F75°F75°F73°F72°F71°F69°F67°F68°F67°F66°F67°F68°F71°F72°F73°F74°F78°F83°F83°F
Cloudiness 100%100%100%99%99%100%100%100%100%100%100%100%100%100%100%100%100%85%92%94%90%75%72%88%94%96%97%98%98%100%100%100%100%100%96%58%79%80%83%86%88%91%95%96%97%97%94%81%
Visibility 6 mi6 mi6 mi6 mi6 mi6 mi6 mi6 mi6 mi6 mi6 mi6 mi6 mi6 mi6 mi6 mi6 mi6 mi6 mi6 mi6 mi6 mi6 mi6 mi6 mi6 mi6 mi6 mi6 mi6 mi6 mi6 mi6 mi6 mi6 mi6 mi6 mi6 mi6 mi6 mi6 mi6 mi6 mi6 mi6 mi6 mi6 mi6 mi
Precipitation 69%64%64%79%84%73%46%39%30%24%24%34%26%30%45%37%28%19%27%28%35%42%42%24%25%22%21%22%26%24%27%36%35%42%48%82%80%85%89%88%71%34%47%40%63%67%76%97%
Humidity 69%65%72%81%86%91%92%91%91%91%92%93%92%93%93%93%93%86%79%72%56%49%44%43%48%50%52%51%58%60%62%69%74%77%85%94%93%95%96%96%93%87%85%81%75%65%56%61%
Dew Point 68°F67°F68°F68°F67°F67°F67°F67°F66°F66°F66°F66°F66°F66°F65°F65°F65°F65°F65°F64°F62°F62°F61°F60°F61°F62°F62°F62°F61°F61°F61°F62°F63°F63°F64°F64°F65°F65°F64°F64°F65°F66°F66°F66°F65°F65°F64°F66°F
Pressure 29.94"29.91"29.91"29.91"29.91"29.94"29.91"29.94"29.94"29.91"29.91"29.91"29.91"29.91"29.94"29.94"29.97"30"30"30"29.97"29.97"29.94"29.91"29.91"29.91"29.91"29.91"29.91"29.91"29.91"29.91"29.94"29.94"29.94"29.94"29.94"29.94"29.94"29.94"29.97"29.97"29.97"29.97"29.97"29.97"29.94"29.91"
Wind Speed 5.8 mph4.7 mph3.3 mph4.4 mph4.7 mph5.1 mph5.1 mph3.9 mph3.3 mph4.2 mph4.3 mph3.8 mph4.3 mph4.5 mph4.5 mph4.6 mph4.9 mph5 mph6.1 mph6.2 mph6.1 mph5.2 mph3.8 mph2 mph2.6 mph3.2 mph4.3 mph4.1 mph2.5 mph1.4 mph3.1 mph5.1 mph5.2 mph5.3 mph5.6 mph4.6 mph4.8 mph5 mph5.1 mph5.1 mph4.1 mph5.4 mph4.7 mph5.1 mph6.1 mph6.8 mph7.3 mph7.5 mph
Wind
Direction
86°
E
98°
E

N
73°
ENE
69°
ENE
62°
ENE
74°
ENE
68°
ENE
38°
NE
33°
NNE
19°
NNE
10°
N
46°
NE
49°
NE
64°
ENE
72°
ENE
55°
NE
55°
NE
64°
ENE
84°
E
102°
ESE
118°
ESE
127°
SE
112°
ESE
101°
E
103°
ESE
127°
SE
127°
SE
143°
SE
162°
SSE
86°
E
61°
ENE
55°
NE
61°
ENE
54°
NE
51°
NE
58°
ENE
45°
NE
36°
NE
43°
NE
47°
NE
57°
ENE
69°
ENE
92°
E
105°
ESE
103°
ESE
112°
ESE
135°
SE

Daily Forecast

Date High Low Precip. Humidity
Today
Aug 16

Rain
81 °F
66 °F
84%
60%
Wednesday
Aug 17

Rain
86 °F
67 °F
45%
49%
Thursday
Aug 18

Rain
82 °F
66 °F
100%
56%
Friday
Aug 19

Rain
76 °F
64 °F
53%
79%
Saturday
Aug 20

Rain
88 °F
66 °F
41%
48%
Sunday
Aug 21

Rain
93 °F
69 °F
67%
38%
Monday
Aug 22

Rain
87 °F
70 °F
100%
56%
Tuesday
Aug 23

Rain
74 °F
69 °F
97%
83%
Wednesday
Aug 24

Rain
78 °F
68 °F
95%
71%
Thursday
Aug 25

Rain
81 °F
68 °F
60%
62%
Friday
Aug 26

Rain
89 °F
66 °F
79%
47%
Saturday
Aug 27

Rain
83 °F
70 °F
100%
64%
Sunday
Aug 28

Rain
71 °F
70 °F
100%
98%
Monday
Aug 29

Rain
77 °F
70 °F
100%
86%
Tuesday
Aug 30

Clouds
89 °F
68 °F
10%
52%
Wednesday
Aug 31

Rain
90 °F
73 °F
62%
51%

Temperature 8-14 Day Outlook



Precipitation 8-14 Day Outlook




Quick Links
Lake Hartwell News
Lake Hartwell Photos
Lake Hartwell Videos




About Us
Contact Us
Site Map
Search Site
Advertise With Us
   
www.MyLakeHartwell.com
THE LAKE HARTWELL WEBSITE

Copyright 2022, Lakes Online
Privacy    |    Legal